AirNav   Everest Fuels
 
 677 users online  

4CO2 Owl Canyon Gliderport
Wellington, Colorado, USA

GOING TO WELLINGTON?


FAA INFORMATION EFFECTIVE 01 DECEMBER 2022

Location

FAA Identifier: 4CO2
Lat/Long: 40-48-16.9380N 104-59-05.9000W
40-48.282300N 104-59.098333W
40.8047050,-104.9849722
(estimated)
Elevation: 5545 ft. / 1690 m (estimated)
Variation: 12E (1985)
From city: 6 miles N of WELLINGTON, CO
Time zone: UTC -7 (UTC -6 during Daylight Saving Time)
Zip code: 80549

Gliderport Operations

Gliderport use: Private use. Permission required prior to landing
Activation date: 11/1974
Control tower: no
ARTCC: DENVER CENTER
FSS: DENVER FLIGHT SERVICE STATION
Attendance: SAT-SUN 0900-1700
Wind indicator: yes
Segmented circle: no

Gliderport Communications

  • COMS AVBL ON FREQ 123.3.

Nearby radio navigation aids

VOR radial/distance  VOR name  Freq  Var
CYSr188/26.2CHEYENNE VORTAC113.1013E
GLLr300/26.7GILL VOR/DME114.2013E

Gliderport Services

Airframe service: NONE
Powerplant service: NONE

Runway Information

Runway 1L/19R

Dimensions: 3000 x 16 ft. / 914 x 5 m
RWY 01L/19R 2000 FT ASPH, REMAINDER TURF.
Surface: asphalt/turf
RUNWAY 1L  RUNWAY 19R
Traffic pattern: leftleft
Obstructions: fencenone

Runway 1R/19L

Dimensions: 3000 x 24 ft. / 914 x 7 m
Surface: turf
RUNWAY 1R  RUNWAY 19L
Traffic pattern: leftleft
Obstructions: fencenone

Runway 15/33

Dimensions: 2500 x 50 ft. / 762 x 15 m
Surface: turf
RUNWAY 15  RUNWAY 33
Traffic pattern: leftleft
Obstructions: nonefence

Runway 9/27

Dimensions: 1800 x 50 ft. / 549 x 15 m
Surface: turf
RUNWAY 9  RUNWAY 27
Traffic pattern: leftleft

Gliderport Ownership and Management from official FAA records

Ownership: Privately-owned
Owner: COLORADO SOARING ASSN.
4598 HACKAMORE ROAD
WELLINGTON, CO 80549
Phone 970-568-7627
Manager: BOARD OF DIRECTORS
4598 HACKAMORE ROAD
WELLINGTON, CO 80549
Phone 970-568-7627
COLORADO SOARING ASSN.

Gliderport Operational Statistics

Aircraft based on the field: 25
Single engine airplanes: 3
Gliders airplanes: 22
    

Additional Remarks

TFC PAT: GLIDERS REMAIN SOUTH AND WEST OF FIELD. POWERED TFC (AIRPLANES, HELS, ULTRALIGHTS) REMAIN NORTH AND EAST OF FIELD.
ABNDD ROAD RUNNING N/S INTERSECTS DIRT PTN OF RWY 01L/19R N END.
FOR CD CTC DENVER APCH AT 303-342-1916.

Instrument Procedures

There are no published instrument procedures at 4CO2.

Some nearby airports with instrument procedures:

KFNL - Northern Colorado Regional Airport (21 nm S)
KCYS - Cheyenne Regional Airport/Jerry Olson Field (22 nm N)
KGXY - Greeley-Weld County Airport (27 nm SE)
KLMO - Vance Brand Airport (39 nm S)
KLAR - Laramie Regional Airport (44 nm NW)
 
Loc | Ops | Rwys | IFR | FBO | Links
Com | Nav | Svcs | Stats | Notes

AirBoss

 
Area around 4CO2 (Owl Canyon Gliderport)
 
Road maps at: MapQuest Bing Google
 
Aerial photo
No photo
 
Sectional chart

 
Airport distance calculator
Flying to Owl Canyon Gliderport? Find the distance to fly.

From to 4CO2

Sunrise and sunset
Times for 04-Dec-2022
 Local
(UTC-7)
 Zulu
(UTC)
Morning civil twilight06:3813:38
Sunrise07:0914:09
Sunset16:3123:31
Evening civil twilight17:0200:02

Current date and time
Zulu (UTC)  04-Dec-2022 11:44:42
Local (UTC-7)  04-Dec-2022 04:44:42
 
METAR
KFEW 
20nm N 
041055Z AUTO 27005KT M M M M01/M05 A3018 RMK AO2 SLPNO T10141049 RVRNO $
KFNL 
21nm S 
041056Z 20005KT 10SM CLR M02/M06 A3019 RMK AO2 SLP241 T10171056 FZRANO
KCYS 
22nm N 
041053Z AUTO 19004KT 10SM SCT090 02/M04 A3017 RMK AO2 SLP207 T00171044
KGXY 
29nm SE 
041056Z 00000KT 10SM CLR M07/M09 A3020 RMK AO2 SLP271 T10721089 FZRANO $
KLMO 
39nm S 
041135Z AUTO 00000KT 10SM CLR M01/M05 A3019 RMK AO2 T10091047
TAF
KCYS 
22nm N 
040520Z 0406/0506 27009KT P6SM BKN100 FM041600 22014KT P6SM FEW150 FM042000 23015G25KT P6SM FEW200 FM050000 23009KT P6SM FEW200 FM050300 25015G25KT P6SM SKC WS020/26040KT
NOTAMs
Click for the latest NOTAMs
NOTAMs are issued by the DoD/FAA and will open in a separate window not controlled by AirNav.

 

 
 

Would you like to see your business listed on this page?

 If your business provides an interesting product or service to pilots, flight crews, aircraft, or users of the Owl Canyon Gliderport, you should consider listing it here.  To start the listing process, click on the button below
 
Add a business
 

Other Pages about Owl Canyon Gliderport

soarcsa.org
 
Update a link
 
Copyright © AirNav, LLC. All rights reserved. Privacy Policy  Contact